[[{"header":{"parameterUnit":"m.s-1","parameterCategory":2,"la1":30.2991,"la2":30.254,"lo1":-89.0895,"lo2":-89.0444,"dy":0.0017,"dx":0.0017,"nx":28,"ny":28,"refTime":"2025-05-17T03:00:00:Z","depth":"0","parameterNumber":2,"parameterNumberName":"U-component_of_CURRENTS"},"data":[0,0,0,0,0,0,0,0,0,0,0,0,0,0,0,0,0,0,0,0,0,0,0,0,0,0,0,0,0,0,0,0,0,0,0,0,0,0,0,0,0,0,0,0,0,0,0,0,0,0,0,0,0,0,0,0,0,0,0.3126,0.3129,0,0.3328,0.3329,0.333,0.3355,0.3354,0.3354,0.3353,0.3361,0.3362,0.3362,0,0,0,0,0,0,0,0,0,0,0,0,0,0.2759,0.2765,0.3126,0.313,0.3134,0.3328,0.3329,0.3331,0.3355,0.3354,0.3354,0.3353,0.3361,0.3362,0.3363,0,0,0,0,0,0,0,0,0,0,0,0,0,0.2921,0.2766,0.3125,0.318,0.3189,0.3328,0.333,0.3331,0.3355,0.3354,0.3353,0.3353,0.336,0.3362,0.3363,0.3387,0,0,0.3366,0.3367,0,0,0,0,0,0,0,0,0.2912,0.2932,0.3168,0.3177,0.3187,0.3329,0.3205,0.3345,0.3355,0.3275,0.3353,0.3352,0.3343,0.3346,0.3366,0.3387,0.3387,0.3366,0.3367,0.3367,0.3368,0,0,0,0,0,0,0,0.29,0.2924,0.319,0.3173,0.3184,0.3197,0.3217,0.3231,0.3296,0.3282,0.3288,0.3336,0.3344,0.3365,0.3366,0.3387,0.3366,0.3367,0.3368,0.3368,0.342,0.3421,0,0,0,0,0,0,0.2909,0.2914,0.3184,0.3198,0.3062,0.3205,0.3227,0.3271,0.33,0.331,0.3337,0.3337,0.3364,0.3365,0.3366,0.3388,0.3367,0.3368,0.3369,0.342,0.3421,0.3421,0,0,0,0,0,0,0.29,0.2931,0.3176,0.3072,0.3106,0.3214,0.3263,0.3276,0.3309,0.3347,0.3349,0.3358,0.3363,0.3365,0.3371,0.3388,0.3369,0.337,0.3419,0.342,0.3421,0.3435,0,0,0,0,0,0,0.2888,0.2926,0.2947,0.3073,0.3113,0.3257,0.3266,0.3281,0.3347,0.3348,0.3366,0.3366,0.3363,0.3369,0.3372,0.3389,0.3371,0.3418,0.3419,0.3421,0.3434,0.3437,0.3439,0,0,0,0,0,0.2874,0.292,0.2946,0.2979,0.3143,0.326,0.3279,0.3341,0.3349,0.3364,0.3366,0.3365,0.338,0.3371,0.3374,0.3392,0.3417,0.3419,0.342,0.3433,0.3436,0.3439,0,0,0,0,0,0,0.2778,0.2933,0.2962,0.3053,0.3148,0.327,0.331,0.335,0.337,0.3365,0.3371,0.3371,0.3386,0.3388,0.3377,0.3411,0.3401,0.3403,0.3409,0.3412,0.3415,0.3435,0.3372,0,0,0,0,0,0.277,0.2836,0.2978,0.3047,0.3099,0.32,0.3254,0.3302,0.3356,0.3366,0.3371,0.338,0.3397,0.3401,0.341,0.3428,0.3472,0.3443,0.3446,0.3448,0.3467,0.3545,0.3557,0.3427,0.3427,0.3427,0,0,0.2756,0.285,0.2888,0.3029,0.3107,0.3185,0.3226,0.3321,0.3359,0.3361,0.3377,0.3388,0.3404,0.342,0.3428,0.3422,0.3509,0.345,0.3452,0.347,0.3548,0.3561,0.3572,0.3428,0.3428,0.3427,0,0,0.2786,0.2843,0.2919,0.2991,0.3127,0.318,0.321,0.3322,0.334,0.3372,0.3385,0.3409,0.3416,0.3444,0.3458,0.3485,0.3521,0.3482,0.3512,0.3587,0.3599,0.361,0.3689,0.3707,0.3483,0.3483,0.3483,0,0.2764,0.2875,0.2955,0.3044,0.3099,0.3177,0.325,0.3289,0.3372,0.3389,0.3369,0.3428,0.3434,0.3493,0.3498,0.3494,0.3543,0.3496,0.3592,0.3604,0.3615,0.3694,0.3714,0.3484,0.3484,0.3484,0.3484,0,0.2867,0.2933,0.2983,0.3102,0.3155,0.3232,0.3307,0.3336,0.3351,0.3391,0.3436,0.3454,0.3495,0.3501,0.3505,0.3591,0.3604,0.3587,0.3586,0.3629,0.3709,0.373,0.3485,0.3485,0.3485,0.3484,0,0,0.2866,0.3026,0.3034,0.3074,0.3187,0.3239,0.3289,0.3366,0.3405,0.3436,0.3497,0.3522,0.3545,0.3565,0.3586,0.3648,0.3763,0.3651,0.3654,0.3735,0.3944,0.389,0.3908,0.3764,0.3767,0.377,0.3972,0,0.2918,0.3061,0.312,0.3192,0.3259,0.3304,0.3337,0.3396,0.3432,0.3494,0.3539,0.3596,0.3566,0.3605,0.3659,0.3745,0.3816,0.3711,0.3887,0.3893,0.3844,0.3929,0.3694,0.3848,0.3992,0.3995,0.3997,0,0.2995,0.3072,0.3175,0.3231,0.3262,0.3294,0.3349,0.3399,0.3496,0.3531,0.3601,0.3649,0.3756,0.3722,0.3887,0.3822,0.3889,0.3945,0.3954,0.3916,0.3877,0.3827,0.388,0.3746,0.4029,0.4026,0.4024,0,0.2961,0.3082,0.3147,0.3179,0.3277,0.3294,0.3326,0.3406,0.3449,0.3581,0.3638,0.3749,0.382,0.3924,0.4016,0.3974,0.4203,0.4157,0.4177,0.4174,0.4016,0.3993,0.3962,0.4289,0.4288,0.4288,0.4287,0,0.2995,0.3031,0.313,0.3169,0.3201,0.3267,0.3312,0.3371,0.3476,0.355,0.3655,0.3748,0.3873,0.4002,0.4079,0.4196,0.4254,0.4218,0.4233,0.4013,0.3989,0.3897,0.3869,0.4295,0.4294,0.4292,0.4291,0,0.2974,0.3048,0.3109,0.319,0.3201,0.3222,0.3287,0.3328,0.3438,0.3555,0.3609,0.3774,0.3945,0.4069,0.4261,0.4266,0.4274,0.4421,0.4158,0.4137,0.3994,0.3976,0.3922,0.3813,0.4485,0.4485,0.4485,0,0.2996,0.3036,0.3105,0.3118,0.3153,0.3189,0.3211,0.33,0.3358,0.3567,0.3626,0.3828,0.3954,0.4205,0.4262,0.4407,0.4287,0.4273,0.414,0.3984,0.3977,0.3845,0.3746,0.3948,0.3944,0.394,0.3937,0,0.302,0.3037,0.3087,0.3111,0.3123,0.3134,0.3179,0.3213,0.3347,0.3459,0.3625,0.3755,0.3969,0.4001,0.4167,0.4218,0.4031,0.4205,0.4103,0.3618,0.3415,0.3313,0.3834,0.3905,0.3909,0.3911,0.3913,0.3914,0.3025,0.3038,0.309,0.3093,0.3096,0.3074,0.3045,0.3123,0.32,0.3324,0.3522,0.3621,0.3728,0.3912,0.3946,0.3799,0.3856,0.3668,0.3689,0.3592,0.3378,0.3843,0.3883,0.3886,0.3889,0.3891,0.3893,0,0.3034,0.3045,0.306,0.3042,0.2996,0.3014,0.3014,0.297,0.3014,0.3164,0.3287,0.3342,0.3366,0.3428,0.3393,0.3287,0.3124,0.3196,0.2922,0.2875,0.3331,0.3192,0.3008,0.3008,0.3008,0.3008,0.3008,0.3009,0.3048,0.3056,0.304,0.2949,0.2911,0.2792,0.2757,0.2729,0.2771,0.2798,0.2809,0.29,0.3058,0.3096,0.2955,0.2878,0.2666,0.2534,0.2607,0.288,0.2922,0.2962,0.282,0.2561,0.2561,0.1938,0.1934,0.1931]},{"header":{"parameterUnit":"m.s-1","parameterCategory":2,"la1":30.2991,"la2":30.254,"lo1":-89.0895,"lo2":-89.0444,"dy":0.0017,"dx":0.0017,"nx":28,"ny":28,"refTime":"2025-05-17T03:00:00:Z","depth":"0","parameterNumber":3,"parameterNumberName":"V-component_of_CURRENTS"},"data":[0,0,0,0,0,0,0,0,0,0,0,0,0,0,0,0,0,0,0,0,0,0,0,0,0,0,0,0,0,0,0,0,0,0,0,0,0,0,0,0,0,0,0,0,0,0,0,0,0,0,0,0,0,0,0,0,0,0,0.001,0.0009,0,-0.0101,-0.0102,-0.0103,-0.0168,-0.0169,-0.0169,-0.017,-0.0264,-0.0266,-0.0268,0,0,0,0,0,0,0,0,0,0,0,0,0,0.0092,0.0092,0.001,0.0009,0.0007,-0.0101,-0.0103,-0.0104,-0.0168,-0.0169,-0.0169,-0.017,-0.0263,-0.0265,-0.0268,0,0,0,0,0,0,0,0,0,0,0,0,0,0.003,0.0092,0.0011,-0.0041,-0.0047,-0.0101,-0.0103,-0.0104,-0.0168,-0.0169,-0.017,-0.017,-0.0262,-0.0265,-0.0268,-0.0269,0,0,-0.0277,-0.0278,0,0,0,0,0,0,0,0,0.0034,0.0028,-0.0032,-0.0037,-0.0044,-0.0125,-0.0109,-0.016,-0.0168,-0.0118,-0.017,-0.0171,-0.0217,-0.0224,-0.0238,-0.0273,-0.0277,-0.0277,-0.0279,-0.028,-0.0281,0,0,0,0,0,0,0,0.0038,0.0031,-0.003,-0.0033,-0.0041,-0.0085,-0.0093,-0.0119,-0.0158,-0.0123,-0.0128,-0.0146,-0.022,-0.0235,-0.0241,-0.0279,-0.0277,-0.028,-0.0282,-0.0283,-0.0316,-0.0315,0,0,0,0,0,0,0.005,0.0036,-0.0027,-0.0034,-0.0011,-0.0085,-0.0095,-0.0095,-0.0159,-0.0171,-0.0145,-0.0149,-0.023,-0.0238,-0.0245,-0.0225,-0.028,-0.0283,-0.0285,-0.0316,-0.0315,-0.0314,0,0,0,0,0,0,0.0052,0.0046,-0.0022,-0.0006,-0.0018,-0.0086,-0.0086,-0.0097,-0.011,-0.0177,-0.0188,-0.0147,-0.0231,-0.024,-0.026,-0.023,-0.0285,-0.0287,-0.0317,-0.0316,-0.0315,-0.0202,0,0,0,0,0,0,0.0056,0.0048,0.0054,-0.0004,-0.0019,-0.0034,-0.0086,-0.0099,-0.0122,-0.0127,-0.0182,-0.0192,-0.0232,-0.0255,-0.0263,-0.0235,-0.0289,-0.0319,-0.0317,-0.0315,-0.0206,-0.0196,-0.0188,0,0,0,0,0,0.0059,0.007,0.0056,0.0047,-0.0008,-0.0033,-0.0042,-0.0093,-0.0121,-0.011,-0.0156,-0.019,-0.025,-0.0256,-0.0266,-0.0238,-0.0319,-0.0317,-0.0315,-0.0211,-0.0198,-0.0188,0,0,0,0,0,0,0.0102,0.0063,0.0045,0.0042,0.0017,-0.0045,-0.005,-0.0082,-0.0111,-0.0121,-0.018,-0.0192,-0.0199,-0.0235,-0.0241,-0.0244,-0.0289,-0.0289,-0.0207,-0.0196,-0.0187,-0.0162,-0.0292,0,0,0,0,0,0.0117,0.012,0.0076,0.0075,0.0067,0.0013,-0.0005,-0.0036,-0.0075,-0.009,-0.0128,-0.017,-0.0197,-0.0209,-0.0241,-0.0239,-0.0264,-0.0229,-0.022,-0.0211,-0.0198,-0.0206,-0.0196,-0.0308,-0.0308,-0.0308,0,0,0.0127,0.0109,0.0106,0.0085,0.0059,0.0069,0.0002,-0.0016,-0.0009,-0.0094,-0.0092,-0.014,-0.0192,-0.0193,-0.0199,-0.0218,-0.0192,-0.0209,-0.0201,-0.0192,-0.0203,-0.0192,-0.0182,-0.0306,-0.0307,-0.0307,0,0,0.0159,0.0144,0.0161,0.0157,0.0128,0.0104,0.0108,0.0061,0.0041,0.0032,-0.0028,-0.0053,-0.0094,-0.0122,-0.0143,-0.01,-0.0146,-0.0114,-0.0042,-0.0049,-0.0039,-0.0031,-0.0041,-0.0035,-0.0105,-0.0105,-0.0105,0,0.0174,0.0199,0.0162,0.0187,0.0192,0.0133,0.0164,0.0141,0.0093,0.0084,0.0051,-0.0006,-0.0055,-0.0053,-0.0047,-0.0076,-0.0093,-0.0077,-0.0035,-0.0027,-0.0021,-0.0033,-0.0028,-0.0099,-0.01,-0.01,-0.0101,0,0.0224,0.0252,0.0265,0.0289,0.0289,0.0307,0.0276,0.0271,0.0238,0.0206,0.0192,0.0126,0.0091,0.0074,0.0023,0.0045,0.0014,-0.0023,-0.0057,-0.0002,-0.0019,-0.0016,-0.0091,-0.0093,-0.0095,-0.0096,0,0,0.0252,0.0294,0.0304,0.0342,0.035,0.0358,0.0378,0.0379,0.039,0.0345,0.0368,0.0302,0.0249,0.0222,0.0159,0.015,0.017,0.0087,0.0084,0.0089,0.0155,0.0129,0.013,0.014,0.0141,0.0142,0.0128,0,0.0312,0.0396,0.0391,0.0474,0.0522,0.0492,0.0519,0.0506,0.0479,0.0487,0.0421,0.0415,0.0311,0.0302,0.0271,0.0196,0.0184,0.0177,0.0091,0.0089,0.0069,0.0135,0.0142,0.0129,0.0131,0.0131,0.0132,0,0.0372,0.043,0.0525,0.0588,0.0601,0.0634,0.0668,0.0682,0.0666,0.0644,0.0616,0.0558,0.053,0.0444,0.035,0.0349,0.0261,0.0202,0.0199,0.014,0.007,0.0072,0.0135,-0.002,0.0137,0.0136,0.0136,0,0.0434,0.0521,0.0607,0.0634,0.0692,0.0717,0.0738,0.0731,0.0758,0.0756,0.0785,0.0708,0.0702,0.0588,0.0432,0.0398,0.0341,0.0277,0.0174,0.0171,0.0142,0.0135,0.0056,0.0226,0.0226,0.0226,0.0226,0,0.0511,0.0578,0.0647,0.0698,0.0795,0.0796,0.0871,0.0868,0.0897,0.0966,0.0875,0.0925,0.0739,0.067,0.0506,0.036,0.0391,0.0208,0.0175,0.0181,0.0178,0.001,-0.0089,0.0225,0.0225,0.0225,0.0226,0,0.057,0.0611,0.0722,0.0806,0.0829,0.0903,0.0973,0.1021,0.1037,0.1136,0.1155,0.1103,0.1019,0.0823,0.0652,0.0474,0.0239,0.0264,0.0281,0.0251,-0.0004,-0.0096,-0.0217,-0.028,0.0158,0.0157,0.0157,0,0.0607,0.0675,0.0807,0.0871,0.0913,0.1008,0.1065,0.1094,0.1163,0.126,0.1329,0.1284,0.128,0.101,0.0699,0.043,0.025,0.0236,0.0164,0.0007,-0.0121,-0.0192,-0.0241,0.0171,0.017,0.017,0.017,0,0.0699,0.0747,0.0844,0.0973,0.1056,0.116,0.1253,0.1336,0.1402,0.1502,0.1625,0.1642,0.1393,0.1122,0.0726,0.0527,0.0128,0.0221,0.006,-0.0106,-0.0189,-0.0272,0.0148,0.0168,0.0168,0.0168,0.0168,0.0168,0.0769,0.0857,0.0972,0.1088,0.1185,0.1308,0.1401,0.1524,0.1676,0.1845,0.1848,0.1895,0.1479,0.0954,0.067,0.0122,0.0116,-0.0058,-0.0152,-0.0205,-0.028,0.0135,0.0111,0.0111,0.0111,0.0111,0.0111,0,0.0865,0.0947,0.1063,0.1207,0.1311,0.1346,0.1517,0.1626,0.1832,0.1984,0.2098,0.1895,0.1414,0.089,0.016,-0.0193,-0.0319,-0.0393,-0.0495,-0.0524,-0.0146,-0.0161,-0.0246,-0.0246,-0.0246,-0.0245,-0.0245,-0.0245,0.0919,0.1046,0.1097,0.1281,0.1372,0.1517,0.1622,0.1807,0.1942,0.2112,0.2119,0.2107,0.1665,0.0438,-0.0368,-0.0542,-0.0791,-0.0853,-0.0968,-0.0727,-0.0703,-0.068,-0.0716,-0.0916,-0.0917,-0.1291,-0.1295,-0.1298]}],[{"header":{"parameterUnit":"m.s-1","parameterCategory":2,"la1":30.2991,"la2":30.254,"lo1":-89.0895,"lo2":-89.0444,"dy":0.0017,"dx":0.0017,"nx":28,"ny":28,"refTime":"2025-05-17T03:00:00:Z","depth":"2","parameterNumber":2,"parameterNumberName":"U-component_of_CURRENTS"},"data":[0,0,0,0,0,0,0,0,0,0,0,0,0,0,0,0,0,0,0,0,0,0,0,0,0,0,0,0,0,0,0,0,0,0,0,0,0,0,0,0,0,0,0,0,0,0,0,0,0,0,0,0,0,0,0,0,0,0,0.2606,0.2611,0,0.3046,0.305,0.3055,0.3241,0.324,0.324,0.324,0.3196,0.3195,0.3195,0,0,0,0,0,0,0,0,0,0,0,0,0,0.2335,0.2336,0.2606,0.2612,0.2618,0.3045,0.3051,0.3056,0.3241,0.324,0.324,0.3239,0.3197,0.3196,0.3195,0,0,0,0,0,0,0,0,0,0,0,0,0,0.2575,0.2336,0.2605,0.2765,0.2784,0.3044,0.3051,0.3058,0.3241,0.324,0.324,0.3239,0.3197,0.3196,0.3194,0.3198,0,0,0.3191,0.319,0,0,0,0,0,0,0,0,0.2561,0.2584,0.2735,0.2754,0.2776,0.3092,0.2941,0.3082,0.3241,0.3062,0.324,0.3239,0.312,0.3126,0.3209,0.3196,0.3194,0.3191,0.319,0.3189,0.3189,0,0,0,0,0,0,0,0.2543,0.2569,0.2775,0.2742,0.2767,0.2956,0.2985,0.2972,0.3075,0.3078,0.3093,0.3151,0.3127,0.321,0.3208,0.3193,0.3191,0.319,0.3189,0.3188,0.3238,0.324,0,0,0,0,0,0,0.2478,0.255,0.2761,0.2788,0.2671,0.296,0.2992,0.2987,0.3087,0.3108,0.3151,0.3158,0.3213,0.3209,0.3206,0.3241,0.3189,0.3188,0.3188,0.3236,0.3238,0.3241,0,0,0,0,0,0,0.247,0.249,0.2743,0.2688,0.2734,0.2962,0.2957,0.2996,0.3108,0.3149,0.3159,0.3225,0.3212,0.3208,0.3229,0.3237,0.3188,0.3187,0.3234,0.3237,0.324,0.3289,0,0,0,0,0,0,0.2459,0.2482,0.25,0.2681,0.2735,0.2936,0.296,0.3005,0.3145,0.3159,0.3213,0.321,0.3211,0.3232,0.3228,0.3235,0.3186,0.3231,0.3235,0.3239,0.3285,0.3293,0.3301,0,0,0,0,0,0.2446,0.2485,0.2495,0.2526,0.2732,0.2941,0.2988,0.3147,0.3148,0.3234,0.3247,0.321,0.3253,0.3233,0.3228,0.3234,0.3229,0.3234,0.3238,0.3281,0.3292,0.3301,0,0,0,0,0,0,0.2408,0.2513,0.2528,0.26,0.2765,0.2974,0.31,0.3156,0.325,0.3242,0.3236,0.3236,0.3262,0.3246,0.3224,0.3265,0.3233,0.3237,0.3268,0.3277,0.3285,0.3292,0.3185,0,0,0,0,0,0.2389,0.2414,0.2576,0.2636,0.2728,0.2899,0.3012,0.3098,0.3198,0.3247,0.3257,0.3264,0.328,0.3276,0.3295,0.3304,0.3331,0.3308,0.3316,0.3323,0.3329,0.3406,0.3421,0.3256,0.3256,0.3256,0,0,0.2397,0.2453,0.2477,0.2628,0.2774,0.291,0.2968,0.3145,0.3208,0.3208,0.3277,0.3293,0.3294,0.333,0.3336,0.3311,0.3388,0.3329,0.3334,0.3337,0.3412,0.3428,0.3443,0.3259,0.3258,0.3258,0,0,0.2458,0.2476,0.2554,0.2677,0.2873,0.2956,0.2996,0.3184,0.3237,0.3299,0.3313,0.3346,0.3352,0.3384,0.3387,0.3444,0.3436,0.3435,0.3465,0.354,0.3554,0.3567,0.3636,0.3654,0.3428,0.3428,0.3428,0,0.2472,0.2554,0.263,0.2758,0.2851,0.2959,0.3083,0.3163,0.3305,0.3324,0.3313,0.3383,0.3381,0.3433,0.3464,0.3459,0.3502,0.3423,0.355,0.3563,0.3575,0.3643,0.3662,0.3431,0.3431,0.343,0.343,0,0.2613,0.269,0.277,0.2893,0.2996,0.3133,0.3226,0.3288,0.3301,0.3356,0.3411,0.3445,0.3483,0.349,0.3487,0.3572,0.3577,0.3559,0.3522,0.3595,0.3662,0.3681,0.3435,0.3434,0.3433,0.3433,0,0,0.2579,0.2817,0.2833,0.2906,0.3067,0.3154,0.3227,0.3332,0.3365,0.3434,0.3489,0.3529,0.3549,0.3559,0.3575,0.3634,0.3758,0.3632,0.3635,0.3695,0.3934,0.3751,0.3754,0.3766,0.377,0.3772,0.3951,0,0.2674,0.289,0.2955,0.3102,0.3231,0.3283,0.3329,0.3397,0.3434,0.3501,0.3534,0.3596,0.3572,0.3607,0.3661,0.3746,0.3811,0.3712,0.3859,0.3864,0.3687,0.377,0.344,0.3553,0.397,0.3973,0.3975,0,0.2777,0.2896,0.3087,0.3189,0.3242,0.3295,0.3349,0.3415,0.3504,0.3538,0.3604,0.3648,0.3753,0.372,0.3885,0.3826,0.3884,0.3937,0.3944,0.3766,0.3716,0.3547,0.3573,0.4008,0.4005,0.4003,0.4,0,0.2738,0.2942,0.3066,0.3129,0.3291,0.3309,0.3343,0.3421,0.3464,0.3584,0.364,0.3748,0.3816,0.3918,0.3999,0.397,0.4176,0.4146,0.4038,0.4027,0.3767,0.3725,0.4266,0.4266,0.4265,0.4265,0.4264,0,0.2807,0.2894,0.3051,0.3141,0.319,0.3282,0.3328,0.3386,0.3485,0.3554,0.3657,0.3737,0.3871,0.3986,0.4056,0.4097,0.4221,0.4062,0.4062,0.3773,0.3732,0.4131,0.4113,0.4271,0.427,0.4269,0.4268,0,0.2809,0.2937,0.3064,0.3198,0.321,0.3238,0.3305,0.3344,0.3452,0.356,0.3611,0.3766,0.3898,0.4008,0.4183,0.4141,0.4227,0.4208,0.385,0.38,0.4024,0.4007,0.4125,0.412,0.4115,0.4112,0.4109,0,0.2867,0.2952,0.3072,0.3097,0.316,0.3203,0.3226,0.3316,0.3372,0.3567,0.3618,0.3778,0.3826,0.3982,0.3962,0.4025,0.4163,0.3759,0.3613,0.4022,0.4012,0.4001,0.399,0.3322,0.3312,0.3305,0.3299,0,0.2943,0.2968,0.3061,0.3111,0.3129,0.3147,0.3194,0.3226,0.3356,0.3445,0.3569,0.3624,0.3697,0.3561,0.3589,0.3593,0.3712,0.3602,0.4167,0.337,0.3268,0.3256,0.3272,0.3232,0.3239,0.3244,0.3247,0.325,0.2953,0.299,0.3077,0.3095,0.3105,0.3085,0.3047,0.309,0.3138,0.3164,0.3359,0.3295,0.3295,0.3113,0.3068,0.3047,0.3292,0.3186,0.3209,0.324,0.3077,0.2968,0.2849,0.2853,0.2857,0.286,0.2863,0,0.2964,0.3008,0.3043,0.3045,0.3003,0.3024,0.3012,0.2912,0.2874,0.2902,0.2902,0.2645,0.2518,0.2573,0.2403,0.2403,0.2391,0.235,0.2316,0.2383,0.2442,0.2238,0.1788,0.1785,0.1782,0.1779,0,0,0.2979,0.3021,0.3023,0.2945,0.2916,0.2791,0.2742,0.2569,0.2512,0.233,0.2241,0.2309,0.2442,0.2054,0.2019,0.1881,0.2119,0.1811,0.267,0.2694,0.2749,0.2918,0.2677,0,0,0,0,0]},{"header":{"parameterUnit":"m.s-1","parameterCategory":2,"la1":30.2991,"la2":30.254,"lo1":-89.0895,"lo2":-89.0444,"dy":0.0017,"dx":0.0017,"nx":28,"ny":28,"refTime":"2025-05-17T03:00:00:Z","depth":"2","parameterNumber":3,"parameterNumberName":"V-component_of_CURRENTS"},"data":[0,0,0,0,0,0,0,0,0,0,0,0,0,0,0,0,0,0,0,0,0,0,0,0,0,0,0,0,0,0,0,0,0,0,0,0,0,0,0,0,0,0,0,0,0,0,0,0,0,0,0,0,0,0,0,0,0,0,-0.0183,-0.0186,0,-0.0338,-0.0339,-0.034,-0.0412,-0.0413,-0.0414,-0.0415,-0.0638,-0.0643,-0.0649,0,0,0,0,0,0,0,0,0,0,0,0,0,-0.0041,-0.0042,-0.0183,-0.0186,-0.0189,-0.0338,-0.0339,-0.034,-0.0412,-0.0413,-0.0414,-0.0415,-0.0637,-0.0643,-0.0649,0,0,0,0,0,0,0,0,0,0,0,0,0,-0.013,-0.0042,-0.0182,-0.025,-0.0259,-0.0338,-0.0339,-0.0341,-0.0412,-0.0413,-0.0414,-0.0416,-0.0635,-0.0642,-0.065,-0.0673,0,0,-0.0674,-0.0677,0,0,0,0,0,0,0,0,-0.0124,-0.0133,-0.0237,-0.0246,-0.0255,-0.0366,-0.0372,-0.0459,-0.0412,-0.0343,-0.0415,-0.0416,-0.056,-0.0574,-0.0584,-0.0683,-0.0693,-0.0674,-0.0679,-0.0682,-0.0685,0,0,0,0,0,0,0,-0.0118,-0.0128,-0.0234,-0.0241,-0.0252,-0.0306,-0.0317,-0.0388,-0.0435,-0.0349,-0.0357,-0.039,-0.0564,-0.0576,-0.059,-0.0696,-0.0674,-0.0681,-0.0686,-0.0689,-0.079,-0.0788,0,0,0,0,0,0,-0.0114,-0.0121,-0.0229,-0.024,-0.0204,-0.0307,-0.032,-0.0321,-0.0433,-0.0454,-0.0389,-0.0394,-0.0562,-0.0581,-0.0599,-0.0582,-0.0682,-0.069,-0.0694,-0.0792,-0.0789,-0.0787,0,0,0,0,0,0,-0.0109,-0.012,-0.0223,-0.0195,-0.0213,-0.0309,-0.0309,-0.0324,-0.0334,-0.0465,-0.0486,-0.0386,-0.0564,-0.0588,-0.0617,-0.0594,-0.0693,-0.07,-0.0794,-0.0791,-0.0788,-0.0583,0,0,0,0,0,0,-0.0104,-0.0117,-0.0114,-0.0193,-0.0215,-0.025,-0.0309,-0.0326,-0.0358,-0.0365,-0.047,-0.0492,-0.0567,-0.0604,-0.0624,-0.0607,-0.0706,-0.0797,-0.0793,-0.0789,-0.0592,-0.0573,-0.0557,0,0,0,0,0,-0.0098,-0.0091,-0.0111,-0.0126,-0.0206,-0.025,-0.0263,-0.0331,-0.0357,-0.0345,-0.0395,-0.0488,-0.0597,-0.0607,-0.0632,-0.0616,-0.0798,-0.0794,-0.079,-0.06,-0.0577,-0.0557,0,0,0,0,0,0,-0.0039,-0.0102,-0.0125,-0.014,-0.0183,-0.0266,-0.0286,-0.0316,-0.0345,-0.0354,-0.0455,-0.0478,-0.0497,-0.058,-0.0589,-0.0634,-0.0717,-0.0717,-0.0565,-0.0544,-0.0527,-0.052,-0.0713,0,0,0,0,0,-0.0022,-0.0024,-0.0094,-0.0104,-0.0127,-0.0196,-0.0225,-0.0258,-0.0306,-0.0321,-0.0381,-0.0451,-0.0498,-0.0536,-0.0593,-0.0617,-0.0671,-0.0626,-0.0608,-0.0593,-0.0602,-0.0616,-0.06,-0.0773,-0.0773,-0.0773,0,0,-0.0011,-0.0043,-0.005,-0.0091,-0.0137,-0.0133,-0.0212,-0.0244,-0.0229,-0.0343,-0.0331,-0.0389,-0.0487,-0.0498,-0.0518,-0.0567,-0.0566,-0.0587,-0.0573,-0.0592,-0.061,-0.0593,-0.0578,-0.077,-0.077,-0.0771,0,0,0.0016,-0.0008,-0.0002,-0.0013,-0.0067,-0.0095,-0.0093,-0.0147,-0.0165,-0.0163,-0.023,-0.0258,-0.0342,-0.0389,-0.0432,-0.0358,-0.0464,-0.0387,-0.0306,-0.0316,-0.0302,-0.029,-0.0307,-0.0299,-0.0388,-0.0387,-0.0387,0,0.003,0.0049,-0.0008,0.001,0.0009,-0.0062,-0.0033,-0.0055,-0.0099,-0.0108,-0.0138,-0.0214,-0.0291,-0.0308,-0.0279,-0.032,-0.0345,-0.0372,-0.0291,-0.0281,-0.0272,-0.0293,-0.0287,-0.0377,-0.0378,-0.0379,-0.038,0,0.007,0.0099,0.0102,0.012,0.0114,0.0128,0.0091,0.0095,0.0068,0.004,0.0025,-0.0049,-0.0107,-0.0123,-0.0184,-0.0164,-0.0205,-0.0252,-0.0337,-0.0242,-0.0271,-0.0267,-0.0362,-0.0366,-0.0369,-0.0371,0,0,0.0086,0.0125,0.0135,0.0175,0.0185,0.0185,0.0213,0.0209,0.0221,0.0188,0.0209,0.014,0.0086,0.0035,-0.0035,-0.0048,0.0005,-0.0117,-0.0122,-0.0121,-0.0013,-0.008,-0.0084,-0.0018,-0.0017,-0.0016,-0.0046,0,0.0144,0.0228,0.0223,0.0314,0.0359,0.0331,0.0364,0.0353,0.0327,0.0336,0.0256,0.0247,0.0149,0.0136,0.011,0.003,0.0017,0.0016,-0.012,-0.0124,-0.0184,-0.0081,-0.0047,-0.0074,-0.0043,-0.0043,-0.0043,0,0.0191,0.0257,0.0359,0.0433,0.0442,0.0483,0.0517,0.0536,0.0514,0.0491,0.0457,0.0392,0.036,0.0277,0.018,0.0188,0.0099,0.0037,0.0033,-0.0109,-0.0185,-0.0173,-0.0071,-0.0039,-0.0039,-0.0039,-0.004,0,0.025,0.0346,0.0442,0.0476,0.0544,0.0571,0.0594,0.0585,0.0608,0.0598,0.0622,0.0541,0.0529,0.0416,0.0257,0.0231,0.016,0.0101,-0.0043,-0.0049,-0.0093,-0.0106,0.0043,0.0043,0.0043,0.0044,0.0044,0,0.0323,0.04,0.0481,0.0542,0.0644,0.065,0.0723,0.072,0.0742,0.0801,0.071,0.0743,0.0568,0.049,0.0328,0.0156,0.0206,-0.0015,-0.0054,-0.0019,-0.0024,-0.0071,-0.0084,0.0042,0.0043,0.0043,0.0043,0,0.0374,0.0426,0.0552,0.0652,0.0678,0.0753,0.0823,0.0866,0.0879,0.0963,0.0978,0.0916,0.0806,0.0609,0.0432,0.0256,0.0092,0.0014,0.006,0.0025,-0.0128,-0.013,-0.0141,-0.0144,-0.0146,-0.0147,-0.0149,0,0.0404,0.048,0.0637,0.0705,0.0754,0.0852,0.0907,0.0937,0.1,0.1073,0.1132,0.1057,0.1002,0.0703,0.04,0.0109,0.0073,-0.0056,-0.0119,-0.0106,-0.0144,-0.0142,-0.0141,-0.008,-0.008,-0.0081,-0.0081,0,0.0482,0.0543,0.0651,0.0796,0.0882,0.0989,0.108,0.1154,0.1213,0.1297,0.1376,0.1341,0.1045,0.0753,0.0341,0.0144,-0.0014,-0.0082,-0.0044,-0.0054,-0.0055,-0.009,-0.009,-0.0087,-0.0086,-0.0086,-0.0086,-0.0086,0.0532,0.0628,0.0757,0.0886,0.0994,0.1114,0.1192,0.1298,0.1427,0.1521,0.1514,0.1454,0.1124,0.057,0.0257,-0.0073,-0.0078,-0.0199,-0.0193,-0.0188,-0.0191,-0.0197,-0.0256,-0.0256,-0.0257,-0.0257,-0.0257,0,0.0594,0.0691,0.0818,0.0975,0.1084,0.1139,0.1293,0.137,0.1526,0.1587,0.1618,0.1302,0.0981,0.0617,0.0123,-0.0188,-0.0188,-0.0278,-0.0199,-0.0192,-0.0186,-0.0187,-0.0252,-0.0253,-0.0254,-0.0254,0,0,0.0623,0.0749,0.0818,0.1004,0.1116,0.126,0.1354,0.1478,0.1552,0.1587,0.1546,0.1434,0.1042,0.0678,0.0284,0.0025,-0.0017,-0.0033,-0.0007,0.014,0.015,-0.0113,-0.0104,0,0,0,0,0]}],[{"header":{"parameterUnit":"m.s-1","parameterCategory":2,"la1":30.2991,"la2":30.254,"lo1":-89.0895,"lo2":-89.0444,"dy":0.0017,"dx":0.0017,"nx":28,"ny":28,"refTime":"2025-05-17T03:00:00:Z","depth":"4","parameterNumber":2,"parameterNumberName":"U-component_of_CURRENTS"},"data":[0,0,0,0,0,0,0,0,0,0,0,0,0,0,0,0,0,0,0,0,0,0,0,0,0,0,0,0,0,0,0,0,0,0,0,0,0,0,0,0,0,0,0,0,0,0,0,0,0,0,0,0,0,0,0,0,0,0,0.0987,0.0984,0,0.0792,0.0791,0.079,0.082,0.0822,0.0824,0.0826,0.0849,0.0848,0.0847,0,0,0,0,0,0,0,0,0,0,0,0,0,0.1278,0.1275,0.0987,0.0983,0.098,0.0792,0.0791,0.0789,0.0819,0.0822,0.0824,0.0827,0.085,0.0848,0.0847,0,0,0,0,0,0,0,0,0,0,0,0,0,0.1137,0.1273,0.0988,0.0963,0.0958,0.0792,0.0791,0.0789,0.0819,0.0822,0.0825,0.0828,0.085,0.0848,0.0846,0.0769,0,0,0.084,0.0839,0,0,0,0,0,0,0,0,0.1145,0.1128,0.097,0.0964,0.0958,0.0822,0.0901,0.0788,0.0818,0.0885,0.0826,0.083,0.085,0.0848,0.0819,0.077,0.0771,0.084,0.0839,0.0838,0.0837,0,0,0,0,0,0,0,0.1155,0.1135,0.0923,0.0966,0.0958,0.0923,0.091,0.0879,0.0866,0.0879,0.0878,0.0835,0.0851,0.0821,0.082,0.0771,0.084,0.0838,0.0837,0.0836,0.0979,0.0984,0,0,0,0,0,0,0.1154,0.1145,0.0929,0.0916,0.1047,0.0915,0.09,0.0873,0.0861,0.0857,0.0832,0.0837,0.0823,0.0823,0.0821,0.0971,0.0838,0.0836,0.0835,0.0974,0.098,0.0986,0,0,0,0,0,0,0.1162,0.1138,0.0936,0.1015,0.0986,0.0906,0.0876,0.0867,0.0864,0.082,0.0824,0.0841,0.0825,0.0824,0.0853,0.0964,0.0835,0.0833,0.0968,0.0976,0.0983,0.1117,0,0,0,0,0,0,0.1171,0.1142,0.1147,0.1015,0.0981,0.0847,0.0871,0.086,0.0825,0.083,0.0827,0.0831,0.0828,0.0857,0.0851,0.0959,0.0831,0.0962,0.0972,0.098,0.1106,0.1128,0.1147,0,0,0,0,0,0.1183,0.1152,0.1149,0.1123,0.0983,0.0843,0.0824,0.0787,0.0822,0.0805,0.0846,0.0833,0.0917,0.0856,0.0849,0.0959,0.0957,0.0969,0.098,0.1097,0.1123,0.1146,0,0,0,0,0,0,0.1276,0.1146,0.1142,0.1077,0.0977,0.0845,0.0809,0.0794,0.0803,0.083,0.084,0.0844,0.0904,0.0915,0.0848,0.104,0.0957,0.0967,0.1049,0.1074,0.1094,0.1069,0.083,0,0,0,0,0,0.1296,0.1251,0.1116,0.1069,0.1015,0.0926,0.0876,0.084,0.0804,0.0811,0.0845,0.09,0.0936,0.099,0.0985,0.1069,0.1023,0.116,0.118,0.1197,0.118,0.1217,0.1238,0.1023,0.1023,0.1023,0,0,0.1315,0.1239,0.1215,0.1087,0.1011,0.0946,0.0908,0.0813,0.0839,0.0811,0.0908,0.0917,0.0955,0.1051,0.1092,0.1091,0.1236,0.1211,0.1225,0.1198,0.1231,0.1251,0.1269,0.1031,0.1029,0.1028,0,0,0.1291,0.1262,0.1203,0.1127,0.0997,0.0954,0.0936,0.0845,0.0892,0.094,0.0956,0.104,0.1111,0.1178,0.1219,0.135,0.1291,0.139,0.1527,0.1566,0.1582,0.1595,0.155,0.1558,0.1464,0.1464,0.1464,0,0.1331,0.1221,0.1163,0.1082,0.1043,0.0974,0.0921,0.0938,0.0907,0.0966,0.1005,0.1135,0.1183,0.1298,0.1397,0.1395,0.1367,0.1423,0.1586,0.1599,0.161,0.1561,0.1568,0.1472,0.1471,0.147,0.147,0,0.1224,0.1167,0.1114,0.1034,0.1023,0.0922,0.0939,0.099,0.1074,0.1099,0.1222,0.1289,0.1395,0.1458,0.1487,0.1624,0.1554,0.1549,0.1507,0.1639,0.1579,0.1585,0.1483,0.148,0.1478,0.1476,0,0,0.1233,0.1066,0.1061,0.1053,0.0975,0.0968,0.1051,0.1085,0.1174,0.1251,0.1373,0.1521,0.1562,0.1611,0.166,0.1743,0.1841,0.1726,0.1724,0.1648,0.1862,0.1816,0.1816,0.1864,0.1866,0.1868,0.1779,0,0.1155,0.1019,0.0989,0.0978,0.0924,0.0969,0.1064,0.1146,0.1254,0.137,0.1473,0.1586,0.1624,0.1716,0.1801,0.1838,0.1863,0.186,0.1772,0.1767,0.1686,0.1826,0.1876,0.1782,0.1783,0.1784,0.1785,0,0.1059,0.0992,0.0916,0.0972,0.0969,0.1017,0.1204,0.1276,0.141,0.1496,0.1613,0.1664,0.1838,0.1828,0.1939,0.1939,0.1906,0.1895,0.1892,0.1798,0.1734,0.1631,0.1792,0.1792,0.1791,0.1791,0.179,0,0.1079,0.0995,0.0958,0.0943,0.0966,0.1071,0.117,0.1327,0.1403,0.1591,0.1676,0.1799,0.1925,0.1937,0.2014,0.199,0.2048,0.2009,0.1873,0.1864,0.1859,0.1845,0.1978,0.1978,0.1978,0.1979,0.1979,0,0.0976,0.0978,0.098,0.0945,0.1028,0.1134,0.1271,0.1377,0.1503,0.1583,0.1765,0.1827,0.197,0.2034,0.2018,0.201,0.2069,0.1891,0.1866,0.1918,0.1913,0.186,0.1847,0.1975,0.1976,0.1977,0.1977,0,0.0933,0.0896,0.0856,0.0917,0.0994,0.108,0.1266,0.1339,0.1533,0.1648,0.1719,0.1883,0.2023,0.209,0.2114,0.2046,0.2012,0.1937,0.1967,0.1942,0.1765,0.1761,0.1779,0.1778,0.1776,0.1775,0.1774,0,0.0841,0.0794,0.0825,0.0855,0.0878,0.1038,0.1122,0.1304,0.139,0.1644,0.1677,0.1868,0.1974,0.1977,0.204,0.2004,0.1949,0.1886,0.1844,0.1785,0.1758,0.1756,0.1754,0.1772,0.1771,0.1771,0.177,0,0.067,0.0683,0.0686,0.0718,0.0806,0.0881,0.1067,0.1099,0.133,0.1498,0.1624,0.1706,0.1833,0.1889,0.1918,0.1856,0.1948,0.1869,0.1869,0.1828,0.1776,0.175,0.175,0.1765,0.1766,0.1767,0.1767,0,0.0579,0.0539,0.0558,0.061,0.0673,0.0731,0.0847,0.1011,0.1111,0.1425,0.1414,0.164,0.1778,0.1801,0.18,0.1825,0.1759,0.1657,0.1667,0.1673,0.1697,0.1618,0.155,0,0,0,0,0,0.047,0.0455,0.0471,0.0514,0.0558,0.0626,0.08,0.093,0.115,0.1195,0.1326,0.144,0.154,0.1601,0.1603,0.1716,0.1744,0.1704,0.1624,0.1737,0.1743,0.1791,0,0,0,0,0,0,0.0421,0.0412,0.0428,0.042,0.0451,0.0521,0.0614,0.0787,0.0865,0.1088,0.1151,0.1322,0.1432,0.1526,0.156,0.1586,0.1499,0.182,0.1816,0.1734,0.1739,0.1744,0.1795,0,0,0,0,0]},{"header":{"parameterUnit":"m.s-1","parameterCategory":2,"la1":30.2991,"la2":30.254,"lo1":-89.0895,"lo2":-89.0444,"dy":0.0017,"dx":0.0017,"nx":28,"ny":28,"refTime":"2025-05-17T03:00:00:Z","depth":"4","parameterNumber":3,"parameterNumberName":"V-component_of_CURRENTS"},"data":[0,0,0,0,0,0,0,0,0,0,0,0,0,0,0,0,0,0,0,0,0,0,0,0,0,0,0,0,0,0,0,0,0,0,0,0,0,0,0,0,0,0,0,0,0,0,0,0,0,0,0,0,0,0,0,0,0,0,0.0169,0.0171,0,0.0346,0.0348,0.035,0.0404,0.0403,0.0402,0.0401,0.0376,0.0377,0.0377,0,0,0,0,0,0,0,0,0,0,0,0,0,0.0036,0.0037,0.0169,0.0171,0.0173,0.0345,0.0348,0.035,0.0404,0.0403,0.0402,0.0401,0.0376,0.0377,0.0377,0,0,0,0,0,0,0,0,0,0,0,0,0,0.014,0.0037,0.0168,0.0221,0.0228,0.0345,0.0348,0.0351,0.0404,0.0403,0.0402,0.04,0.0376,0.0377,0.0377,0.0402,0,0,0.0377,0.0377,0,0,0,0,0,0,0,0,0.0134,0.0145,0.0211,0.0218,0.0225,0.0352,0.0292,0.0358,0.0404,0.0336,0.0401,0.04,0.0351,0.0353,0.0391,0.0401,0.04,0.0377,0.0377,0.0377,0.0377,0,0,0,0,0,0,0,0.0127,0.0139,0.0238,0.0214,0.0222,0.0291,0.0302,0.0307,0.0344,0.0342,0.0347,0.0368,0.0353,0.0391,0.039,0.04,0.0377,0.0377,0.0377,0.0377,0.0326,0.0324,0,0,0,0,0,0,0.0099,0.0131,0.0232,0.0243,0.0176,0.0293,0.0307,0.0312,0.0349,0.0355,0.0369,0.037,0.0391,0.039,0.0389,0.0378,0.0377,0.0377,0.0378,0.0327,0.0325,0.0324,0,0,0,0,0,0,0.0095,0.0106,0.0225,0.0193,0.0213,0.0296,0.0302,0.0316,0.0368,0.0371,0.0373,0.0407,0.039,0.0389,0.0381,0.0378,0.0378,0.0378,0.0329,0.0326,0.0324,0.0381,0,0,0,0,0,0,0.0091,0.0103,0.0106,0.019,0.0213,0.0298,0.0304,0.032,0.0382,0.0385,0.0404,0.04,0.0389,0.0381,0.0381,0.0378,0.0378,0.0331,0.0328,0.0325,0.0381,0.0381,0.038,0,0,0,0,0,0.0085,0.0107,0.0104,0.0117,0.021,0.03,0.0319,0.0374,0.0385,0.0414,0.0406,0.04,0.0362,0.0381,0.0381,0.0378,0.0332,0.0329,0.0325,0.0381,0.0381,0.038,0,0,0,0,0,0,0.0065,0.0117,0.0116,0.0153,0.0215,0.0309,0.0355,0.0387,0.0416,0.0416,0.0404,0.04,0.0385,0.0368,0.0389,0.0346,0.0337,0.0334,0.0379,0.0379,0.0379,0.038,0.0378,0,0,0,0,0,0.0055,0.007,0.0138,0.0166,0.0202,0.0278,0.0324,0.0363,0.0401,0.0418,0.042,0.0401,0.0374,0.0367,0.0348,0.0346,0.0296,0.0331,0.0331,0.0332,0.0327,0.0233,0.0225,0.0313,0.0313,0.0313,0,0,0.0054,0.0084,0.0094,0.0161,0.0219,0.0283,0.0304,0.0386,0.0418,0.0404,0.0436,0.0411,0.0371,0.0357,0.0347,0.0344,0.0281,0.0327,0.0329,0.0323,0.0229,0.022,0.0213,0.031,0.0311,0.0311,0,0,0.0092,0.0092,0.0135,0.0187,0.0272,0.0305,0.0328,0.0418,0.0436,0.0465,0.0438,0.041,0.0402,0.0364,0.0341,0.0327,0.0284,0.0315,0.0326,0.0235,0.0227,0.022,0.016,0.0147,0.0316,0.0316,0.0316,0,0.0092,0.0143,0.0166,0.0237,0.0283,0.0312,0.0386,0.0408,0.0473,0.0467,0.047,0.0419,0.04,0.0347,0.0341,0.0331,0.0278,0.0341,0.0237,0.0229,0.022,0.0161,0.0145,0.0318,0.0318,0.0318,0.0318,0,0.0172,0.0218,0.0258,0.0322,0.0372,0.0439,0.0473,0.0489,0.0496,0.0504,0.0469,0.0436,0.0399,0.038,0.0366,0.0292,0.0274,0.0252,0.0247,0.0215,0.0154,0.0137,0.0322,0.0321,0.032,0.032,0,0,0.0159,0.0284,0.0298,0.0349,0.0423,0.0478,0.0495,0.0517,0.0508,0.0515,0.0497,0.0447,0.0421,0.039,0.0354,0.028,0.0193,0.0249,0.0243,0.0208,0.0004,0.0055,0.0041,0.015,0.0147,0.0145,-0.0008,0,0.0215,0.0357,0.0386,0.0489,0.0571,0.0571,0.0578,0.0587,0.0563,0.0538,0.0473,0.0445,0.0423,0.0407,0.0328,0.0226,0.0148,0.0237,0.0024,0.0018,0.0081,0.0023,0.0135,-0.0021,-0.0025,-0.0027,-0.0029,0,0.0281,0.0373,0.0509,0.0581,0.0609,0.0646,0.0643,0.0656,0.0593,0.0576,0.0519,0.0468,0.0381,0.0362,0.0165,0.0222,0.0118,0.0033,0.0024,0.0038,0.0036,0.0009,-0.006,-0.0058,-0.0056,-0.0054,-0.0052,0,0.0302,0.0434,0.0538,0.0581,0.0674,0.0693,0.0701,0.067,0.0662,0.06,0.0586,0.0462,0.0413,0.0256,0.011,0.0124,-0.0119,-0.0124,-0.0184,-0.0181,-0.0201,-0.0192,-0.0289,-0.0289,-0.0288,-0.0288,-0.0288,0,0.0348,0.0428,0.0559,0.0633,0.0697,0.0743,0.0759,0.0739,0.0704,0.0683,0.0616,0.0562,0.0378,0.0233,0.0091,-0.0087,-0.0138,-0.0196,-0.0228,-0.0172,-0.0159,-0.0212,-0.0201,-0.0294,-0.0292,-0.0291,-0.029,0,0.0369,0.0458,0.0576,0.0694,0.0731,0.0771,0.0812,0.0804,0.0784,0.0755,0.0745,0.0613,0.0442,0.026,-0.0004,-0.0095,-0.028,-0.0336,-0.0249,-0.0271,-0.0277,-0.0261,-0.042,-0.042,-0.042,-0.042,-0.0419,0,0.0395,0.0482,0.0629,0.0686,0.0744,0.0815,0.085,0.0848,0.084,0.0778,0.0758,0.0608,0.0508,0.0181,-0.001,-0.0271,-0.0302,-0.0392,-0.0347,-0.0281,-0.0296,-0.0281,-0.0267,-0.0419,-0.0419,-0.0419,-0.0419,0,0.0448,0.0498,0.0597,0.0723,0.0788,0.085,0.0901,0.0891,0.0874,0.0868,0.0755,0.0606,0.0417,0.018,-0.0012,-0.0205,-0.0328,-0.039,-0.0392,-0.0351,-0.0282,-0.0293,-0.0279,-0.0418,-0.0418,-0.0418,-0.0418,0,0.0466,0.0514,0.0644,0.0731,0.0802,0.0845,0.0879,0.0881,0.0871,0.081,0.0758,0.058,0.0462,0.0212,0.002,-0.014,-0.0175,-0.0226,-0.0237,-0.024,-0.0125,-0.0007,-0.0102,0,0,0,0,0,0.0481,0.0544,0.0643,0.0737,0.0797,0.0847,0.0892,0.0914,0.0896,0.0826,0.0797,0.0629,0.0369,0.024,0.0087,0.0024,-0.0205,-0.016,-0.027,-0.0414,-0.0415,-0.0304,0,0,0,0,0,0,0.049,0.0592,0.0643,0.0717,0.0773,0.0847,0.0864,0.0878,0.0834,0.08,0.0656,0.0609,0.0346,0.0463,0.009,0.0042,-0.0046,-0.0275,-0.0278,-0.0413,-0.0414,-0.0415,-0.0301,0,0,0,0,0]}]]